Location: Elaine Barite Prospect
(34.1431°N, 106.7922°W)
Time: 04:48:17
(UTC+00:00)

CZ-4 R/B - Pass Details

Date: 13 December 2025
Orbit: 675 x 744 km, 98.7° (Epoch: 12 January)

Event Time Altitude Azimuth Distance (km) Brightness Sun altitude
Rises 12:18:10 0° 10° (N) 3,034 7.1 -21.3°
Reaches altitude 10° 12:20:25 10° 9° (N) 2,114 6.2 -20.9°
Maximum altitude 12:25:00 74° 285° (WNW) 703 3.6 -20.0°
Drops below altitude 10° 12:29:35 10° 200° (SSW) 2,107 6.2 -19.1°
Sets 12:31:49 0° 199° (SSW) 3,024 7.1 -18.6°
